Printer-friendly version

IAU Minor Planet Center

Minor Planet Center

MPEC 2007-M47 : 2007 ML24

The following Minor Planet Electronic Circular may be linked-to from your own Web pages, but must not otherwise be redistributed electronically.


Read MPEC 2007-M46 Read MPEC 2007-M48


M.P.E.C. 2007-M47                                Issued 2007 June 27, 11:55 UT

     The Minor Planet Electronic Circulars contain information on unusual
         minor planets and routine data on comets.  They are published
   on behalf of Commission 20 of the International Astronomical Union by the
          Minor Planet Center, Smithsonian Astrophysical Observatory,
                          Cambridge, MA 02138, U.S.A.

             Prepared using the Tamkin Foundation Computer Network

                              MPC@CFA.HARVARD.EDU
          URL http://www.cfa.harvard.edu/iau/mpc.html  ISSN 1523-6714

                                   2007 ML24

Observations:
     K07M24L  C2007 06 21.42934 00 53 46.93 +31 58 35.4          20.4 V EM047G96
     K07M24L  C2007 06 21.43675 00 53 48.51 +31 58 59.4          21.1 V EM047G96
     K07M24L  C2007 06 21.44406 00 53 50.02 +31 59 23.6          20.9 V EM047G96
     K07M24L  C2007 06 21.45146 00 53 51.57 +31 59 47.5          20.8 V EM047G96
     K07M24L* C2007 06 22.45403 00 57 25.70 +32 54 09.7          21.2 V EM047G96
     K07M24L  C2007 06 22.45549 00 57 25.99 +32 54 14.4          21.0 V EM047G96
     K07M24L  C2007 06 22.45697 00 57 26.31 +32 54 19.1          21.0 V EM047G96
     K07M24L  C2007 06 22.45851 00 57 26.64 +32 54 24.7          21.0 V EM047G96
     K07M24L tC2007 06 24.44524 01 04 47.74 +34 41 46.4          21.6 V EM047291
     K07M24L tC2007 06 24.45023 01 04 48.92 +34 42 02.1          21.5 V EM047291
     K07M24L tC2007 06 24.45490 01 04 49.79 +34 42 17.2          21.0 V EM047291

Observer details:
291 LPL/Spacewatch II.  Observer A. F. Tubbiolo.  1.8-m f/2.7 reflector + CCD.
G96 Mt. Lemmon Survey.  Observers A. Boattini, E. Beshore.  Measurers
    E. C. Beshore, A. Boattini, G. J. Garradd, A. R. Gibbs, A. D. Grauer,
    R. E. Hill, R. A. Kowalski, S. M. Larson, R. H. McNaught.  1.5-m reflector
    + CCD.

Orbital elements:
2007 ML24                                           PHA, Earth MOID = 0.0110 AU
Epoch 2007 Apr. 10.0 TT = JDT 2454200.5                 MPC
M 103.75002              (2000.0)            P               Q
n   1.46500677     Peri.  200.23713     -0.48948500     -0.68077636
a   0.7677909      Node   282.93137     +0.85706000     -0.26036170
e   0.3538670      Incl.   33.99420     +0.16078739     -0.68465709
P   0.67           H   19.1           G   0.15           U   9
Residuals in seconds of arc
070621 G96  0.3-  0.2+    070622 G96  0.2+  0.0     070624 291  0.3+  0.4+
070621 G96  0.2+  0.1-    070622 G96  0.1-  0.1-    070624 291  1.0+  0.1-
070621 G96  0.0   0.1+    070622 G96  0.1-  0.2-    070624 291  1.3-  0.3-
070621 G96  0.1+  0.3-    070622 G96  0.0   0.3+

Ephemeris:
2007 ML24                a,e,i = 0.77, 0.35, 34                  q = 0.4961
Date    TT    R. A. (2000) Decl.     Delta      r     Elong.  Phase     V
2007 06 19    00 45.48   +29 46.6    0.821    1.024    66.8    65.8    21.0
2007 06 21    00 52.27   +31 35.3    0.817    1.020    66.6    66.1    21.0
2007 06 23    00 59.40   +33 23.7    0.812    1.016    66.4    66.5    21.0
2007 06 25    01 06.90   +35 11.6    0.808    1.012    66.2    66.8    21.0
2007 06 27    01 14.83   +36 58.7    0.805    1.007    65.9    67.2    21.0
2007 06 29    01 23.20   +38 44.5    0.802    1.002    65.6    67.6    21.0
2007 07 01    01 32.08   +40 28.6    0.800    0.996    65.2    67.9    21.0
2007 07 03    01 41.49   +42 10.7    0.798    0.990    64.8    68.3    21.0
2007 07 05    01 51.50   +43 50.1    0.797    0.984    64.4    68.7    21.0
2007 07 07    02 02.14   +45 26.4    0.796    0.977    63.9    69.1    21.0
2007 07 09    02 13.46   +46 58.9    0.796    0.970    63.3    69.5    21.0
2007 07 11    02 25.50   +48 27.1    0.796    0.962    62.7    69.9    21.0
2007 07 13    02 38.30   +49 50.1    0.797    0.954    62.1    70.3    21.0
2007 07 15    02 51.88   +51 07.3    0.798    0.946    61.4    70.7    21.0
2007 07 17    03 06.25   +52 18.0    0.800    0.937    60.7    71.1    21.0
2007 07 19    03 21.41   +53 21.3    0.803    0.928    60.0    71.5    21.0

Timothy B. Spahr             (C) Copyright 2007 MPC           M.P.E.C. 2007-M47

Read MPEC 2007-M46 Read MPEC 2007-M48


Our Web policy. Index to the CBAT/MPC/ICQ pages.


Valid HTML 4.01!